Regional Weather Roundup
Issued by NWS

Home | Current Version | Previous Version | Graphics & Text | Print | Product List | Glossary On
Versions: 1 2 3 4 5 6 7 8 9 10 11 12 13 14 15 16 17 18 19 20 21 22 23 24 25 26 27 28 29 30 31 32 33 34 35 36 37 38 39 40 41 42 43 44 45 46 47 48 49 50
000
ASUS43 KMPX 260901
RWRMN
WEATHER ROUNDUP FOR MINNESOTA
NATIONAL WEATHER SERVICE TWIN CITIES/CHANHASSEN MN
400 AM CDT WED JUL 26 2017


NOTE: "FAIR" INDICATES FEW OR NO CLOUDS BELOW 12,000 FEET WITH NO
SIGNIFICANT WEATHER AND/OR OBSTRUCTIONS TO VISIBILITY. N/A MEANS
CURRENT SKY AND/OR WEATHER CONDITIONS ARE NOT AVAILABLE.

MNZ060>063-068>070-261000-
   Twin Cities Metro

CITY           SKY/WX    TMP DP  RH WIND       PRES   REMARKS
TWIN CITIES    CLOUDY    75  73  93 SE8       29.93F
ST PAUL        CLOUDY    74  74 100 S9        29.93F FOG
CRYSTAL        LGT RAIN  75  71  87 NW8       29.94R
BLAINE         CLOUDY    75  75 100 W6        29.95R
LAKEVILLE      TSTM      68  68 100 S7        29.92F
SOUTH ST PAUL  CLOUDY    74  74  98 S6        29.95R
LAKE ELMO      LGT RAIN  72  72 100 CALM      29.94F
$$
MNZ001>005-007-008-013>017-022>024-027-028-261000-
   Northwest Minnesota

CITY           SKY/WX    TMP DP  RH WIND       PRES   REMARKS
BEMIDJI        CLOUDY    57  54  90 NW8       29.97S
HALLOCK        CLEAR     57  55  94 W5        29.97R
ROSEAU         PTCLDY    63  57  82 W6        29.96S
WARROAD        CLEAR     61  55  82 W6        29.96S
CROOKSTON      MOCLDY    59  55  88 W5        29.99R
FOSSTON        MOCLDY    54  52  94 CALM      29.99S
DETROIT LAKES  CLOUDY    64  57  77 N7        30.00S
MOORHEAD       CLOUDY    63  57  82 CALM      30.00R
PARK RAPIDS    CLOUDY    63  57  81 NW3       29.98S
MAHNOMEN       FAIR      57  55  91 NW6       29.97F
$$
MNZ006-009>011-018-025>026-261000-
   North Central Minnesota

CITY           SKY/WX    TMP DP  RH WIND       PRES   REMARKS
BAUDETTE       CLOUDY    59  57  93 W3        29.94S
FLAG ISLAND    CLEAR     64  57  77 W10       29.92S
INTL FALLS     PTCLDY    58  55  90 W6        29.92F
WASKISH        PTCLDY    66  61  82 W10       29.95R
BIG FORK       CLOUDY    59  57  94 CALM      29.95S
LONGVILLE      CLOUDY    64  59  82 CALM      29.97S
GRAND RAPIDS   MOCLDY    66  62  87 NW10      29.97F
CRANE LAKE     PTCLDY    63  57  82 CALM      29.93S
ORR            PTCLDY    57  55  94 CALM      29.91S
COOK             N/A     61  59  94 W3        29.94R
WALKER         FAIR      59  58  97 NW5       29.98S
$$
MNZ012-019>021-037-261000-
   Northeast Minnesota

CITY           SKY/WX    TMP DP  RH WIND       PRES   REMARKS
DULUTH         CLOUDY    68  66  93 NW7       29.93R
ELY            PTCLDY    63  61  94 CALM      29.93R
HIBBING        PTCLDY    60  60 100 NW5       29.94S
EVELETH        PTCLDY    64  59  83 CALM      29.94F
DULUTH HARBOR  CLOUDY    70  66  88 SW7       29.93R
TWO HARBORS    CLOUDY    72  66  83 CALM      29.90R
SILVER BAY     CLOUDY    70  64  83 S6        29.88R
GRAND MARAIS     N/A     60  60 100 CALM      29.83F
G MARAIS ARPRT PTCLDY    63  59  88 NW5       29.91S
$$
MNZ029>031-032-039>041-046>048-054>057-064-261000-
   West Central Minnesota

CITY           SKY/WX    TMP DP  RH WIND       PRES   REMARKS
FERGUS FALLS   CLOUDY    68  66  94 CALM      30.01R
WHEATON        CLOUDY    72  66  83 CALM      30.01S
MORRIS         CLOUDY    72  72 100 N8        29.96F
ALEXANDRIA     CLOUDY    71  69  93 N3        30.03R
ELBOW LAKE     FAIR      70  69  99 N6        30.01S
WADENA         CLOUDY    64  64 100 CALM      30.02R
GLENWOOD       CLOUDY    72  70  94 NW3       30.02S
APPLETON       CLOUDY    72  70  94 CALM      29.96S
BENSON         CLOUDY    70  68  94 E5        29.98F
ORTONVILLE     CLOUDY    72  70  94 MISG      29.97S
MADISON        CLOUDY    73  73 100 CALM      29.97S
WILLMAR        LGT RAIN  70  70 100 N8        29.98F
$$
MNZ033>034-036-042>043-049>051-058-059-261000-
   Central Minnesota

CITY           SKY/WX    TMP DP  RH WIND       PRES   REMARKS
ST CLOUD       LGT RAIN  71  71 100 W8        29.99R
SAUK CENTRE    CLOUDY    71  69  94 CALM      30.01R
PAYNESVILLE    LGT RAIN  71  68  89 SW6       30.03R
AITKIN         CLOUDY    68  64  88 CALM      29.96S
PINE RIVER     CLOUDY    64  63  94 CALM      30.01S
BRAINERD       CLOUDY    69  65  86 NW6       29.98R
STAPLES        CLOUDY    64  64 100 NW5       30.01R
LONG PRAIRIE   CLOUDY    68  68 100 S3        30.03R
LITTLE FALLS   CLOUDY    68  64  88 CALM      30.01R
LITCHFIELD     LGT RAIN  72  70  94 NW10      29.98F
BUFFALO        LGT RAIN  71  66  85 W13       29.98F
MAPLE LAKE     RAIN      71  69  93 NW10G21   29.99F
HUTCHINSON     CLEAR     71  69  96 NW7       29.98F
$$
MNZ037-044-045-052-053-261000-
   East Central Minnesota

CITY           SKY/WX    TMP DP  RH WIND       PRES   REMARKS
PRINCETON      CLOUDY    72  70  94 W7        29.97S
MORA           CLOUDY    64  64 100 CALM      29.97F
CAMBRIDGE      CLOUDY    73  66  78 W5        29.93F
RUSH CITY      HVY RAIN  69  68  96 CALM      29.94F
MOOSE LAKE     CLOUDY    64  63  94 CALM      29.94S FOG
HINCKLEY       PTSUNNY   66  66 100 CALM      29.95F
CLOQUET        PTCLDY    70  64  83 NW6       29.95R
MCGREGOR       CLOUDY    68  64  88 NW3       29.96S
$$
MNZ071>073-080-081-089-090-097-098-261000-
   Southwest Minnesota

CITY           SKY/WX    TMP DP  RH WIND       PRES   REMARKS
MONTEVIDEO     CLOUDY    70  66  88 CALM      29.96F
GRANITE FALLS  CLOUDY    72  70  93 NW3       29.98F
CANBY          CLOUDY    71  69  94 CALM      29.99S
MARSHALL       CLOUDY    70  68  93 N3        29.98S
REDWOOD FALLS  CLOUDY    72  67  84 N12G17    29.95F
OLIVIA         DRIZZLE   70  66  88 N10G17    29.95F
PIPESTONE      CLOUDY    70  64  83 CALM      30.00R
WINDOM         LGT RAIN  72  66  83 CALM      29.99R
WORTHINGTON    LGT RAIN  70  68  93 CALM      29.98S
JACKSON        CLOUDY    72  68  88 CALM      29.99S
TRACY          CLOUDY    71  69  94 NW5       29.99R
SLAYTON        HVY RAIN  68  65  90 W3        29.99R
$$
MNZ065>067-074>077-082>085-091>093-261000-
   South Central Minnesota

CITY           SKY/WX    TMP DP  RH WIND       PRES   REMARKS
MANKATO        TSTM      75  73  94 SW8       29.97R
NEW ULM        CLOUDY    73  70  88 SW5       29.99R
ST JAMES       CLOUDY    73  72  94 W5        29.99R
FAIRMONT       CLOUDY    76  74  93 SW7       29.97S
GLENCOE        LGT RAIN  72  72 100 NW8       29.97F
FARIBAULT      CLOUDY    73  68  83 SW6       29.97R
OWATONNA       CLOUDY    73  70  88 SE6       29.96S
WASECA         CLOUDY    72  68  88 SE5       29.97R
ALBERT LEA     CLOUDY    75  72  88 S7        29.97R
$$
MNZ078>079-086>088-094>096-261000-
   Southeast Minnesota

CITY           SKY/WX    TMP DP  RH WIND       PRES   REMARKS
ROCHESTER      CLOUDY    72  69  90 S10       29.98F
RED WING       CLOUDY    73  70  88 E3        29.93F
STANTON        CLOUDY    70  66  89 W5G10     29.98R
DODGE CENTER   CLOUDY    72  68  88 S6        29.97F
WINONA         CLOUDY    73  68  83 S5        29.97S
AUSTIN         CLOUDY    72  68  88 S6        29.97S
PRESTON        CLOUDY    71  66  85 S10G16    30.00S
$$
ABBREVIATIONS USED IN REMARKS
   TC - TEMPERATURES IN CELSIUS
  WCI - WIND CHILL INDEX
   HX - HEAT INDEX
  VSB - VISIBILITY
$$



USA.gov is the U.S. government's official web portal to all federal, state and local government web resources and services.